OAL929 FQNC-FLKK

Flight info

Callsign OAL929
Flight time 1h 53m
Altitude 38000
Route OKBOB UT547 VNP UT933 DVL UN305 NESAK R782 IBNOP
Aircraft B738/M-V/N

Departure

Time 2026-05-05 09:50
Airport Nacala International Airport (FQNC)

Arrival

Time 2026-05-05 11:44
Airport Kenneth Kaunda International Airport (FLKK)
Time Latitude Longitude Altitude Speed Heading
2026-05-05 09:41 -14.47443 40.71337 341 ft 0 kts 184°
2026-05-05 09:50 -14.47707 40.71316 354 ft 80 kts 184°
2026-05-05 09:50 -14.48529 40.71249 372 ft 154 kts 185°
2026-05-05 09:50 -14.49724 40.71158 863 ft 180 kts 182°
2026-05-05 09:50 -14.50990 40.70984 1897 ft 183 kts 201°
2026-05-05 09:51 -14.51916 40.70076 2690 ft 206 kts 242°
2026-05-05 09:51 -14.52445 40.68578 2955 ft 232 kts 250°
2026-05-05 09:51 -14.53005 40.66980 3310 ft 246 kts 249°
2026-05-05 09:51 -14.53623 40.65242 3565 ft 268 kts 249°
2026-05-05 09:52 -14.54281 40.63396 4164 ft 279 kts 250°
2026-05-05 09:52 -14.54955 40.61512 5017 ft 280 kts 250°
2026-05-05 09:52 -14.55636 40.59614 5810 ft 285 kts 251°
2026-05-05 09:52 -14.56335 40.57671 6515 ft 292 kts 251°
2026-05-05 09:53 -14.57048 40.55692 7241 ft 296 kts 251°
2026-05-05 09:53 -14.57767 40.53695 8004 ft 299 kts 251°
2026-05-05 09:53 -14.58498 40.51671 8710 ft 303 kts 250°
2026-05-05 09:53 -14.59239 40.49619 9436 ft 307 kts 250°
2026-05-05 09:54 -14.59992 40.47535 10129 ft 312 kts 250°
2026-05-05 09:54 -14.60763 40.45400 10517 ft 327 kts 250°
2026-05-05 09:54 -14.61587 40.43116 10613 ft 351 kts 250°
2026-05-05 09:54 -14.62461 40.40694 10776 ft 371 kts 250°
2026-05-05 09:55 -14.63383 40.38137 10934 ft 387 kts 250°
2026-05-05 09:55 -14.64333 40.35506 11402 ft 393 kts 250°
2026-05-05 09:55 -14.65287 40.32862 12033 ft 394 kts 250°
2026-05-05 09:55 -14.66242 40.30211 12617 ft 396 kts 250°
2026-05-05 09:56 -14.67208 40.27529 13146 ft 400 kts 250°
2026-05-05 09:56 -14.68183 40.24823 13674 ft 403 kts 250°
2026-05-05 09:56 -14.69163 40.22100 14192 ft 406 kts 250°
2026-05-05 09:56 -14.70149 40.19361 14692 ft 408 kts 250°
2026-05-05 09:57 -14.71139 40.16605 15135 ft 412 kts 250°
2026-05-05 09:57 -14.72140 40.13822 15580 ft 415 kts 250°
2026-05-05 09:57 -14.73148 40.11015 16057 ft 417 kts 250°
2026-05-05 09:57 -14.74176 40.08204 16525 ft 420 kts 248°
2026-05-05 09:58 -14.75332 40.05420 16949 ft 424 kts 245°
2026-05-05 09:58 -14.76572 40.02644 17395 ft 427 kts 244°
2026-05-05 09:58 -14.77842 39.99864 17856 ft 429 kts 244°
2026-05-05 09:58 -14.79120 39.97066 18304 ft 432 kts 244°
2026-05-05 09:59 -14.80399 39.94246 18667 ft 435 kts 244°
2026-05-05 09:59 -14.81676 39.91405 19066 ft 437 kts 245°
2026-05-05 09:59 -14.82950 39.88555 19499 ft 437 kts 245°
2026-05-05 09:59 -14.84219 39.85702 19907 ft 438 kts 245°
2026-05-05 10:00 -14.85494 39.82832 20271 ft 440 kts 245°
2026-05-05 10:00 -14.86775 39.79941 20635 ft 443 kts 245°
2026-05-05 10:00 -14.88058 39.77045 21005 ft 444 kts 245°
2026-05-05 10:00 -14.89348 39.74136 21367 ft 446 kts 245°
2026-05-05 10:01 -14.90641 39.71216 21708 ft 448 kts 245°
2026-05-05 10:01 -14.91940 39.68283 22021 ft 450 kts 245°
2026-05-05 10:01 -14.93246 39.65333 22332 ft 452 kts 245°
2026-05-05 10:01 -14.94559 39.62367 22680 ft 454 kts 245°
2026-05-05 10:02 -14.95874 39.59395 22993 ft 456 kts 245°
2026-05-05 10:02 -14.97198 39.56402 23289 ft 458 kts 245°
2026-05-05 10:02 -14.98524 39.53400 23583 ft 460 kts 245°
2026-05-05 10:02 -14.99856 39.50385 23832 ft 461 kts 245°
2026-05-05 10:03 -15.01190 39.47364 24106 ft 462 kts 245°
2026-05-05 10:03 -15.02523 39.44344 24402 ft 462 kts 245°
2026-05-05 10:03 -15.03857 39.41321 24681 ft 462 kts 245°
2026-05-05 10:03 -15.05192 39.38296 24926 ft 463 kts 245°
2026-05-05 10:04 -15.06529 39.35262 25169 ft 464 kts 246°
2026-05-05 10:04 -15.07683 39.32147 25349 ft 466 kts 256°
2026-05-05 10:04 -15.08164 39.28834 25546 ft 466 kts 268°
2026-05-05 10:04 -15.08000 39.25544 25910 ft 463 kts 279°
2026-05-05 10:05 -15.07290 39.22263 26239 ft 461 kts 284°
2026-05-05 10:05 -15.06526 39.19041 26482 ft 462 kts 284°
2026-05-05 10:05 -15.05779 39.15841 26602 ft 466 kts 283°
2026-05-05 10:05 -15.05033 39.12569 26775 ft 468 kts 283°
2026-05-05 10:06 -15.04298 39.09288 27002 ft 468 kts 283°
2026-05-05 10:06 -15.03571 39.06007 27239 ft 468 kts 283°
2026-05-05 10:06 -15.02845 39.02715 27447 ft 470 kts 283°
2026-05-05 10:06 -15.02118 38.99414 27618 ft 471 kts 283°
2026-05-05 10:07 -15.01387 38.96102 27797 ft 473 kts 283°
2026-05-05 10:07 -15.00654 38.92783 27990 ft 474 kts 283°
2026-05-05 10:07 -14.99924 38.89485 28187 ft 474 kts 283°
2026-05-05 10:07 -14.99174 38.86100 28398 ft 475 kts 283°
2026-05-05 10:08 -14.98438 38.82780 28651 ft 474 kts 283°
2026-05-05 10:08 -14.97704 38.79472 28966 ft 472 kts 283°
2026-05-05 10:08 -14.96972 38.76178 29322 ft 470 kts 283°
2026-05-05 10:08 -14.96244 38.72899 29645 ft 468 kts 283°
2026-05-05 10:09 -14.95517 38.69628 29917 ft 468 kts 283°
2026-05-05 10:09 -14.94779 38.66307 30154 ft 468 kts 283°
2026-05-05 10:09 -14.94051 38.63041 30403 ft 467 kts 283°
2026-05-05 10:09 -14.93331 38.59814 30658 ft 466 kts 282°
2026-05-05 10:10 -14.92602 38.56548 30890 ft 465 kts 282°
2026-05-05 10:10 -14.91871 38.53273 31085 ft 466 kts 282°
2026-05-05 10:10 -14.91147 38.50029 31295 ft 466 kts 282°
2026-05-05 10:10 -14.90414 38.46751 31555 ft 465 kts 282°
2026-05-05 10:11 -14.89686 38.43493 31853 ft 464 kts 282°
2026-05-05 10:11 -14.88960 38.40248 32119 ft 463 kts 282°
2026-05-05 10:11 -14.88234 38.37005 32327 ft 464 kts 282°
2026-05-05 10:11 -14.87506 38.33755 32512 ft 465 kts 282°
2026-05-05 10:12 -14.86776 38.30500 32741 ft 464 kts 282°
2026-05-05 10:12 -14.86048 38.27254 33037 ft 463 kts 282°
2026-05-05 10:12 -14.85322 38.24021 33338 ft 461 kts 282°
2026-05-05 10:12 -14.84597 38.20795 33579 ft 461 kts 282°
2026-05-05 10:13 -14.83872 38.17569 33740 ft 462 kts 282°
2026-05-05 10:13 -14.83142 38.14326 33932 ft 463 kts 282°
2026-05-05 10:13 -14.82414 38.11092 34205 ft 462 kts 282°
2026-05-05 10:13 -14.81688 38.07869 34512 ft 458 kts 281°
2026-05-05 10:14 -14.80967 38.04672 34794 ft 456 kts 281°
2026-05-05 10:14 -14.80246 38.01479 34966 ft 457 kts 281°
2026-05-05 10:14 -14.79524 37.98275 35090 ft 458 kts 281°
2026-05-05 10:14 -14.78800 37.95070 35264 ft 458 kts 281°
2026-05-05 10:15 -14.78076 37.91868 35536 ft 456 kts 281°
2026-05-05 10:15 -14.77357 37.88690 35855 ft 453 kts 281°
2026-05-05 10:15 -14.76643 37.85534 36101 ft 452 kts 281°
2026-05-05 10:15 -14.75926 37.82369 36231 ft 453 kts 281°
2026-05-05 10:16 -14.75208 37.79198 36363 ft 454 kts 281°
2026-05-05 10:16 -14.74489 37.76027 36583 ft 452 kts 281°
2026-05-05 10:16 -14.73773 37.72874 36861 ft 450 kts 281°
2026-05-05 10:16 -14.73301 37.70796 37028 ft 448 kts 281°
2026-05-05 10:17 -14.72348 37.66603 37257 ft 448 kts 281°
2026-05-05 10:17 -14.71877 37.64526 37319 ft 449 kts 281°
2026-05-05 10:17 -14.71161 37.61379 37431 ft 450 kts 281°
2026-05-05 10:17 -14.70213 37.57216 37714 ft 448 kts 281°
2026-05-05 10:18 -14.69501 37.54092 37965 ft 446 kts 281°
2026-05-05 10:18 -14.69023 37.51993 38072 ft 445 kts 281°
2026-05-05 10:18 -14.67592 37.45720 38059 ft 448 kts 281°
2026-05-05 10:19 -14.66159 37.39448 38028 ft 447 kts 281°
2026-05-05 10:19 -14.64729 37.33199 38005 ft 447 kts 281°
2026-05-05 10:20 -14.63301 37.26964 37985 ft 447 kts 282°
2026-05-05 10:20 -14.61876 37.20749 38002 ft 446 kts 282°
2026-05-05 10:21 -14.60450 37.14538 38049 ft 444 kts 282°
2026-05-05 10:21 -14.59024 37.08335 38075 ft 443 kts 282°
2026-05-05 10:22 -14.57597 37.02139 38079 ft 443 kts 282°
2026-05-05 10:22 -14.56167 36.95934 38077 ft 444 kts 282°
2026-05-05 10:23 -14.54734 36.89723 38068 ft 445 kts 282°
2026-05-05 10:23 -14.53300 36.83519 38071 ft 446 kts 282°
2026-05-05 10:24 -14.51852 36.77258 38062 ft 447 kts 282°
2026-05-05 10:24 -14.50404 36.71004 38050 ft 448 kts 282°
2026-05-05 10:25 -14.48949 36.64740 38047 ft 449 kts 282°
2026-05-05 10:25 -14.47493 36.58479 38036 ft 450 kts 282°
2026-05-05 10:26 -14.46032 36.52205 38027 ft 451 kts 282°
2026-05-05 10:26 -14.44566 36.45915 38027 ft 451 kts 282°
2026-05-05 10:27 -14.43109 36.39673 38038 ft 450 kts 283°
2026-05-05 10:27 -14.41643 36.33397 38043 ft 450 kts 283°
2026-05-05 10:28 -14.40178 36.27135 38060 ft 448 kts 283°
2026-05-05 10:28 -14.38715 36.20883 38053 ft 448 kts 283°
2026-05-05 10:29 -14.37252 36.14648 38035 ft 447 kts 283°
2026-05-05 10:29 -14.35792 36.08430 38053 ft 445 kts 283°
2026-05-05 10:30 -14.34334 36.02229 38033 ft 445 kts 283°
2026-05-05 10:30 -14.32877 35.96036 38062 ft 444 kts 283°
2026-05-05 10:31 -14.31419 35.89850 38047 ft 444 kts 283°
2026-05-05 10:31 -14.29960 35.83665 38042 ft 444 kts 283°
2026-05-05 10:32 -14.28499 35.77482 38065 ft 444 kts 283°
2026-05-05 10:32 -14.27035 35.71291 38049 ft 445 kts 283°
2026-05-05 10:33 -14.25568 35.65097 38039 ft 446 kts 283°
2026-05-05 10:33 -14.24096 35.58887 38058 ft 446 kts 283°
2026-05-05 10:34 -14.22620 35.52664 38069 ft 447 kts 284°
2026-05-05 10:34 -14.21138 35.46431 38040 ft 448 kts 284°
2026-05-05 10:35 -14.19653 35.40199 38025 ft 449 kts 284°
2026-05-05 10:35 -14.18169 35.33980 38037 ft 449 kts 284°
2026-05-05 10:36 -14.16677 35.27731 38060 ft 448 kts 284°
2026-05-05 10:36 -14.15183 35.21478 38037 ft 448 kts 284°
2026-05-05 10:37 -14.13694 35.15254 37997 ft 448 kts 284°
2026-05-05 10:37 -14.12204 35.09034 37986 ft 448 kts 284°
2026-05-05 10:38 -14.10708 35.02795 38006 ft 446 kts 284°
2026-05-05 10:38 -14.09227 34.96628 38022 ft 445 kts 284°
2026-05-05 10:39 -14.07733 34.90414 38046 ft 444 kts 284°
2026-05-05 10:39 -14.06249 34.84243 38047 ft 444 kts 284°
2026-05-05 10:40 -14.04767 34.78094 38050 ft 444 kts 284°
2026-05-05 10:40 -14.03276 34.71914 38048 ft 444 kts 284°
2026-05-05 10:41 -14.01781 34.65723 38053 ft 444 kts 284°
2026-05-05 10:41 -14.00290 34.59549 38057 ft 444 kts 284°
2026-05-05 10:42 -13.98051 34.50295 38046 ft 444 kts 284°
2026-05-05 10:43 -13.96557 34.44129 38068 ft 445 kts 284°
2026-05-05 10:43 -13.95055 34.37938 38063 ft 445 kts 284°
2026-05-05 10:44 -13.93555 34.31760 38045 ft 446 kts 284°
2026-05-05 10:44 -13.92046 34.25554 38044 ft 447 kts 284°
2026-05-05 10:45 -13.90531 34.19330 38067 ft 447 kts 284°
2026-05-05 10:45 -13.89018 34.13119 38091 ft 447 kts 284°
2026-05-05 10:46 -13.87503 34.06912 38089 ft 447 kts 284°
2026-05-05 10:46 -13.85988 34.00709 38114 ft 447 kts 284°
2026-05-05 10:47 -13.84470 33.94501 38159 ft 447 kts 284°
2026-05-05 10:47 -13.82952 33.88296 38176 ft 446 kts 284°
2026-05-05 10:48 -13.81437 33.82118 38178 ft 446 kts 284°
2026-05-05 10:48 -13.80295 33.75828 38217 ft 445 kts 278°
2026-05-05 10:49 -13.79480 33.69529 38164 ft 446 kts 278°
2026-05-05 10:49 -13.78654 33.63230 38124 ft 446 kts 278°
2026-05-05 10:50 -13.77783 33.56882 38092 ft 446 kts 279°
2026-05-05 10:50 -13.76903 33.50597 38060 ft 445 kts 279°
2026-05-05 10:51 -13.76019 33.44304 38030 ft 445 kts 279°
2026-05-05 10:51 -13.75135 33.38012 38015 ft 445 kts 279°
2026-05-05 10:52 -13.74250 33.31723 38015 ft 444 kts 279°
2026-05-05 10:52 -13.73365 33.25442 38018 ft 444 kts 279°
2026-05-05 10:53 -13.72477 33.19156 38025 ft 444 kts 279°
2026-05-05 10:53 -13.71594 33.12912 38024 ft 444 kts 279°
2026-05-05 10:54 -13.70697 33.06585 38023 ft 444 kts 279°
2026-05-05 10:54 -13.69811 33.00339 38006 ft 444 kts 279°
2026-05-05 10:55 -13.68907 32.94055 38004 ft 445 kts 280°
2026-05-05 10:55 -13.67905 32.87777 38022 ft 445 kts 280°
2026-05-05 10:56 -13.67251 32.81456 37968 ft 447 kts 268°
2026-05-05 10:56 -13.67620 32.78286 38085 ft 446 kts 260°
2026-05-05 10:56 -13.68425 32.75187 37947 ft 452 kts 251°
2026-05-05 10:56 -13.69608 32.72215 38175 ft 447 kts 249°
2026-05-05 10:57 -13.70807 32.69246 37977 ft 452 kts 250°
2026-05-05 10:57 -13.72000 32.66263 38083 ft 450 kts 250°
2026-05-05 10:57 -13.73180 32.63282 37983 ft 452 kts 250°
2026-05-05 10:58 -13.75529 32.57282 37978 ft 453 kts 250°
2026-05-05 10:58 -13.77866 32.51274 37974 ft 453 kts 250°
2026-05-05 10:59 -13.80204 32.45252 37976 ft 454 kts 250°
2026-05-05 10:59 -13.82542 32.39227 37974 ft 454 kts 250°
2026-05-05 11:00 -13.84882 32.33195 37981 ft 454 kts 250°
2026-05-05 11:00 -13.87219 32.27169 37986 ft 454 kts 250°
2026-05-05 11:01 -13.89555 32.21137 38000 ft 453 kts 251°
2026-05-05 11:01 -13.91886 32.15112 37999 ft 453 kts 251°
2026-05-05 11:02 -13.93823 32.10106 37981 ft 453 kts 251°
2026-05-05 11:02 -13.96147 32.04090 37987 ft 452 kts 251°
2026-05-05 11:03 -13.98471 31.98070 37998 ft 452 kts 251°
2026-05-05 11:03 -14.00790 31.92058 37982 ft 452 kts 251°
2026-05-05 11:04 -14.03107 31.86047 37987 ft 452 kts 251°
2026-05-05 11:04 -14.05420 31.80039 37998 ft 451 kts 251°
2026-05-05 11:05 -14.07731 31.74033 37989 ft 451 kts 251°
2026-05-05 11:05 -14.10045 31.68030 37981 ft 451 kts 251°
2026-05-05 11:06 -14.12360 31.62033 38000 ft 450 kts 251°
2026-05-05 11:06 -14.14672 31.56032 37994 ft 450 kts 251°
2026-05-05 11:07 -14.16980 31.50037 37982 ft 450 kts 251°
2026-05-05 11:07 -14.19289 31.44035 37977 ft 450 kts 251°
2026-05-05 11:08 -14.21593 31.38039 37996 ft 450 kts 251°
2026-05-05 11:08 -14.23897 31.32039 37980 ft 450 kts 251°
2026-05-05 11:09 -14.26197 31.26042 37974 ft 450 kts 251°
2026-05-05 11:09 -14.28485 31.20073 37979 ft 450 kts 251°
2026-05-05 11:10 -14.30783 31.14072 37973 ft 450 kts 251°
2026-05-05 11:10 -14.33083 31.08060 37969 ft 451 kts 251°
2026-05-05 11:11 -14.35381 31.02048 37973 ft 451 kts 251°
2026-05-05 11:11 -14.37680 30.96028 37960 ft 451 kts 251°
2026-05-05 11:12 -14.39978 30.90007 37976 ft 451 kts 251°
2026-05-05 11:12 -14.42273 30.83987 37968 ft 451 kts 251°
2026-05-05 11:13 -14.44566 30.77967 37968 ft 451 kts 251°
2026-05-05 11:13 -14.46857 30.71949 37969 ft 450 kts 251°
2026-05-05 11:14 -14.49140 30.65932 37966 ft 450 kts 251°
2026-05-05 11:14 -14.51416 30.59923 37974 ft 449 kts 251°
2026-05-05 11:15 -14.53688 30.53918 37989 ft 449 kts 251°
2026-05-05 11:15 -14.55958 30.47914 37983 ft 449 kts 251°
2026-05-05 11:16 -14.58226 30.41912 37986 ft 449 kts 251°
2026-05-05 11:16 -14.60491 30.35910 37990 ft 449 kts 251°
2026-05-05 11:17 -14.62758 30.29900 37980 ft 449 kts 251°
2026-05-05 11:17 -14.65018 30.23904 37996 ft 448 kts 251°
2026-05-05 11:18 -14.67278 30.17899 38011 ft 448 kts 251°
2026-05-05 11:18 -14.69525 30.11925 38008 ft 449 kts 251°
2026-05-05 11:19 -14.71785 30.05913 38003 ft 449 kts 251°
2026-05-05 11:19 -14.74041 29.99905 38027 ft 448 kts 251°
2026-05-05 11:20 -14.76295 29.93895 38011 ft 448 kts 251°
2026-05-05 11:20 -14.78546 29.87890 38028 ft 448 kts 251°
2026-05-05 11:21 -14.80795 29.81884 38039 ft 448 kts 251°
2026-05-05 11:21 -14.83043 29.75874 38026 ft 448 kts 251°
2026-05-05 11:21 -14.84167 29.72866 37864 ft 451 kts 251°
2026-05-05 11:22 -14.85308 29.69812 37123 ft 457 kts 251°
2026-05-05 11:22 -14.86441 29.66779 36820 ft 449 kts 251°
2026-05-05 11:22 -14.87572 29.63752 35944 ft 455 kts 251°
2026-05-05 11:22 -14.88705 29.60717 35578 ft 448 kts 251°
2026-05-05 11:23 -14.89839 29.57675 34708 ft 456 kts 251°
2026-05-05 11:23 -14.90969 29.54643 34079 ft 455 kts 251°
2026-05-05 11:23 -14.92113 29.51571 33475 ft 454 kts 251°
2026-05-05 11:23 -14.93254 29.48511 32431 ft 462 kts 251°
2026-05-05 11:24 -14.94398 29.45438 31967 ft 454 kts 251°
2026-05-05 11:24 -14.95548 29.42346 31188 ft 459 kts 251°
2026-05-05 11:24 -14.96693 29.39267 30286 ft 464 kts 251°
2026-05-05 11:24 -14.97833 29.36203 29871 ft 454 kts 251°
2026-05-05 11:25 -14.98971 29.33141 29445 ft 449 kts 251°
2026-05-05 11:25 -15.00055 29.30106 28486 ft 453 kts 253°
2026-05-05 11:25 -15.01020 29.27093 27888 ft 448 kts 253°
2026-05-05 11:25 -15.01956 29.24031 27516 ft 440 kts 254°
2026-05-05 11:26 -15.02878 29.20988 26804 ft 441 kts 254°
2026-05-05 11:26 -15.03793 29.17984 26137 ft 441 kts 254°
2026-05-05 11:26 -15.04714 29.14995 25776 ft 433 kts 253°
2026-05-05 11:26 -15.05637 29.12016 25198 ft 433 kts 253°
2026-05-05 11:27 -15.06557 29.09062 24612 ft 432 kts 253°
2026-05-05 11:27 -15.07475 29.06120 24129 ft 428 kts 253°
2026-05-05 11:27 -15.08390 29.03188 23564 ft 428 kts 253°
2026-05-05 11:27 -15.09301 29.00266 22956 ft 426 kts 253°
2026-05-05 11:28 -15.10206 28.97364 22406 ft 422 kts 253°
2026-05-05 11:28 -15.11105 28.94479 21871 ft 419 kts 253°
2026-05-05 11:28 -15.11996 28.91615 21340 ft 417 kts 254°
2026-05-05 11:28 -15.12881 28.88770 20834 ft 414 kts 254°
2026-05-05 11:29 -15.13762 28.85936 20298 ft 413 kts 254°
2026-05-05 11:29 -15.14639 28.83114 19767 ft 412 kts 254°
2026-05-05 11:29 -15.15435 28.80269 19216 ft 410 kts 262°
2026-05-05 11:29 -15.15417 28.77354 18656 ft 405 kts 282°
2026-05-05 11:30 -15.14960 28.74490 18052 ft 406 kts 279°
2026-05-05 11:30 -15.14657 28.71599 17584 ft 403 kts 277°
2026-05-05 11:30 -15.14411 28.68714 17039 ft 402 kts 277°
2026-05-05 11:30 -15.14170 28.65840 16537 ft 399 kts 277°
2026-05-05 11:31 -15.13921 28.62990 16034 ft 397 kts 277°
2026-05-05 11:31 -15.13661 28.60150 15535 ft 395 kts 278°
2026-05-05 11:31 -15.13394 28.57328 15033 ft 393 kts 278°
2026-05-05 11:31 -15.13122 28.54518 14517 ft 392 kts 278°
2026-05-05 11:32 -15.12852 28.51725 14015 ft 386 kts 278°
2026-05-05 11:32 -15.12590 28.49000 13489 ft 375 kts 277°
2026-05-05 11:32 -15.12334 28.46356 13007 ft 364 kts 278°
2026-05-05 11:32 -15.12080 28.43778 12523 ft 356 kts 278°
2026-05-05 11:33 -15.11785 28.41268 12082 ft 347 kts 279°
2026-05-05 11:33 -15.11472 28.38821 11632 ft 340 kts 278°
2026-05-05 11:33 -15.11165 28.36411 11214 ft 336 kts 278°
2026-05-05 11:33 -15.10869 28.34039 11006 ft 329 kts 278°
2026-05-05 11:34 -15.10576 28.31668 10828 ft 335 kts 277°
2026-05-05 11:34 -15.10385 28.29290 10663 ft 329 kts 266°
2026-05-05 11:34 -15.11008 28.27066 10551 ft 318 kts 241°
2026-05-05 11:34 -15.12329 28.25262 10296 ft 313 kts 221°
2026-05-05 11:35 -15.14015 28.23929 10223 ft 297 kts 215°
2026-05-05 11:35 -15.15662 28.22727 10103 ft 282 kts 215°
2026-05-05 11:35 -15.17211 28.21595 10023 ft 262 kts 215°
2026-05-05 11:35 -15.18642 28.20543 9904 ft 243 kts 215°
2026-05-05 11:36 -15.19963 28.19564 9788 ft 224 kts 215°
2026-05-05 11:36 -15.21177 28.18660 9662 ft 207 kts 215°
2026-05-05 11:36 -15.22322 28.17808 9446 ft 200 kts 215°
2026-05-05 11:36 -15.23441 28.16975 9305 ft 200 kts 215°
2026-05-05 11:37 -15.24586 28.16120 9099 ft 205 kts 215°
2026-05-05 11:37 -15.25747 28.15253 8879 ft 207 kts 215°
2026-05-05 11:37 -15.26917 28.14380 8646 ft 208 kts 215°
2026-05-05 11:37 -15.28198 28.13750 8364 ft 208 kts 185°
2026-05-05 11:38 -15.29537 28.14127 8175 ft 196 kts 138°
2026-05-05 11:38 -15.30153 28.15307 8061 ft 193 kts 97°
2026-05-05 11:38 -15.30367 28.16710 7878 ft 202 kts 103°
2026-05-05 11:38 -15.30690 28.18116 7827 ft 197 kts 98°
2026-05-05 11:39 -15.30858 28.19524 7707 ft 194 kts 94°
2026-05-05 11:39 -15.30976 28.20886 7650 ft 192 kts 94°
2026-05-05 11:39 -15.31096 28.22284 7610 ft 194 kts 94°
2026-05-05 11:39 -15.31214 28.23700 7411 ft 201 kts 94°
2026-05-05 11:40 -15.31340 28.25125 7159 ft 201 kts 94°
2026-05-05 11:40 -15.31459 28.26544 6919 ft 194 kts 93°
2026-05-05 11:40 -15.31575 28.27906 6711 ft 186 kts 94°
2026-05-05 11:40 -15.31691 28.29225 6475 ft 180 kts 93°
2026-05-05 11:41 -15.31805 28.30481 6245 ft 170 kts 95°
2026-05-05 11:41 -15.31904 28.31635 6059 ft 157 kts 93°
2026-05-05 11:41 -15.31998 28.32765 5878 ft 158 kts 94°
2026-05-05 11:41 -15.32112 28.33891 5683 ft 152 kts 94°
2026-05-05 11:42 -15.32194 28.34999 5482 ft 155 kts 93°
2026-05-05 11:42 -15.32284 28.36107 5265 ft 153 kts 93°
2026-05-05 11:42 -15.32380 28.37202 5122 ft 156 kts 94°
2026-05-05 11:42 -15.32477 28.38337 4903 ft 156 kts 94°
2026-05-05 11:43 -15.32573 28.39442 4678 ft 152 kts 93°
2026-05-05 11:43 -15.32667 28.40545 4400 ft 153 kts 93°
2026-05-05 11:43 -15.32765 28.41657 4171 ft 157 kts 92°
2026-05-05 11:43 -15.32862 28.42771 3955 ft 153 kts 94°
2026-05-05 11:44 -15.32947 28.43801 3788 ft 130 kts 96°
2026-05-05 11:44 -15.32999 28.44381 3777 ft 14 kts 95°
2026-05-05 11:44 -15.32933 28.44424 3779 ft 15 kts 326°
2026-05-05 11:44 -15.32900 28.44404 3779 ft 0 kts 336°